Find MUBLCOM

NORAD ID: 25736 Int'l Des: 1999-026 Owner: CECOM Country: US operational
LEOCIRCULARRETROGRADE

Current View

Loading 3D Globe...

About MUBLCOM

Description loading...

Upcoming Passes

Passes for default location (London). Set your location on the main map for personalized predictions.

Altitude History

Loading altitude history...

Two-Line Element Set

1 25736U 99026B 26151.51264036 .00001412 00000-0 32205-3 0 9994
2 25736 97.6869 12.6340 0003211 299.0499 61.0379 14.57167315427419
Epoch: May 31, 2026 • Age: 9 hours

Current Status

Altitude 706.0 km
Velocity 7.50 km/s
Sub-Earth Point 5.98°N, 15.69°W
Launch Date May 18, 1999
Age 27 years
Type other

Technical Details

Classification Payload
Mass 48.00 kg
Dry Mass 48.00 kg
Total Mass 48.00 kg
Length 0.20 m
Diameter 1.00 m
Span 4.30 m
Shape Cyl + 2 Pan
Manufacturer OSCG
Bus Type Microstar
Phase Status Collided
Owner/State CECOM/US

Most Searched